Location: Banksville Park
(38.5557°N, 75.1182°W)
Time: 08:52:37
(UTC+00:00)

Envisat - Pass Details

Date: 27 November 2020
Orbit: 764 x 766 km, 98.1° (Epoch: 15 January)

Event Time Altitude Azimuth Distance (km) Brightness Sun altitude
Rises 11:08:53 0° 9° (N) 3,240 6.1 -9.2°
Reaches altitude 10° 11:11:13 10° 7° (N) 2,310 5.4 -8.8°
Maximum altitude 11:16:16 67° 286° (WNW) 827 3.0 -7.9°
Drops below altitude 10° 11:21:16 10° 204° (SSW) 2,293 5.5 -7.0°
Sets 11:23:35 0° 201° (SSW) 3,215 6.2 -6.5°
